Find Badr 6

NORAD ID: 33154 Int'l Des: 2008-034 Owner: ARAB Country: I-ARAB operational
HEOCIRCULAR

リアルタイム位置

3D地球を読み込み中...

Badr 6について

説明を読み込み中...

次回通過

Passes for default location (London). Set your location on the main map for personalized predictions.

高度履歴

Loading altitude history...

軌道要素

1 33154U 08034B 26104.84185772 .00000037 00000-0 00000+0 0 9995
2 33154 2.7041 80.1790 0010570 328.9069 179.0179 0.98742468 65044
Epoch: Apr 14, 2026 • Age: 6 hours

現在のステータス

高度 36219.2 km
速度 3.06 km/s
衛星直下点 -2.33°S, 80.43°E
打ち上げ日 Jul 7, 2008
運用期間 17.7 years
タイプ other

技術仕様

分類 Payload
質量 3346.00 kg
乾燥質量 1510.00 kg
総質量 3346.00 kg
長さ 2.90 m
直径 1.80 m
スパン 32.00 m
形状 Box + 2 Pan + Dish
製造者 ASTT
バスタイプ Eurostar 2000+
フェーズステータス In Orbit
所有者/国 ARAB/I-ARAB

Most Searched